Regional Weather Roundup
Issued by NWS

Home | Current Version | Previous Version | Graphics & Text | Print | Product List | Glossary On
Versions: 1 2 3 4 5 6 7 8 9 10 11 12 13 14 15 16 17 18 19 20 21 22 23 24 25 26 27 28 29 30 31 32 33 34 35 36 37 38 39 40 41 42 43 44 45 46 47 48 49 50
000
ASUS43 KDMX 301106
RWRIA

WEATHER ROUNDUP FOR IOWA
NATIONAL WEATHER SERVICE DES MOINES IA
600 AM CDT TUE MAY 30 2017

NOTE: "FAIR" INDICATES FEW OR NO CLOUDS BELOW 12,000 FEET WITH NO
SIGNIFICANT WEATHER AND/OR OBSTRUCTIONS TO VISIBILITY.

* - THESE STATIONS ARE NOT NWS STATIONS...THUS NOT UNDER NWS
QUALITY CONTROL.  THEY ALSO DO NOT REPORT WEATHER SUCH
AS PRECIPITATION OR FOG.

IAZ001>003-012>014-020>022-031>034-043>046-301200-
   NORTHWEST IOWA

CITY           SKY/WX    TMP DP  RH WIND       PRES   REMARKS
CARROLL *      CLOUDY    54  45  71 W8        30.03R
CHEROKEE *     CLOUDY    49  45  85 S5        30.01S
DENISON *      MOCLDY    46  45  93 CALM      30.05S
LE MARS *      CLOUDY    50  45  81 S3        30.02S
ORANGE CITY *  PTCLDY    48  45  87 W5        30.01S
SHELDON *      CLOUDY    54  43  66 W10       29.99R
SIOUX CITY     PTCLDY    46  43  89 CALM      30.03R
SPENCER        CLOUDY    52  45  77 W8        29.99R
STORM LAKE *   CLOUDY    52  43  71 W7        30.01S
$$

IAZ055>058-069>071-079>083-090>094-301200-
   SOUTHWEST IOWA

CITY           SKY/WX    TMP DP  RH WIND       PRES   REMARKS
ATLANTIC *     MOCLDY    48  46  93 SW3       30.04S
AUDUBON *      CLOUDY    48  45  87 CALM      30.05R
CLARINDA *     CLEAR     45  45 100 SW3       30.08R
COUNCIL BLFS * CLEAR     52  46  82 SW8       30.05R
CRESTON *      MOCLDY    50  45  81 SW6       30.06R
HARLAN  *      MOCLDY    48  48 100 CALM      30.08R
LAMONI         CLEAR     50  43  77 W7        30.05R
RED OAK *      CLEAR     48  45  87 CALM      30.05S
SHENANDOAH *   CLEAR     48  45  87 CALM      30.07R
$$

IAZ047>049-059>061-072>074-084-301200-
   CENTRAL IOWA

CITY           SKY/WX    TMP DP  RH WIND       PRES   REMARKS
AMES           CLOUDY    53  47  79 W7        30.01R
ANKENY *       CLOUDY    50  46  87 SW6       30.03R
BOONE *        CLOUDY    54 N/A N/A SW6       30.01R
CHARITON *     CLOUDY    52  46  82 SW7       30.04R
DES MOINES     CLOUDY    53  46  77 SW5       30.02R
GRINNELL*      MOCLDY    50  45  83 CALM      30.02R
KNOXVILLE *    CLOUDY    52  45  76 SW8       30.01S
MARSHALLTOWN   PTCLDY    48  45  89 SW6       29.99R
NEWTON *       CLOUDY    52  46  82 SW6       30.00S
PELLA *        PTCLDY    51  46  83 CALM      30.03S
PERRY *        MOCLDY    51  48  88 W5        30.02R
$$

IAZ004>006-015-016-023>025-035-036-301200-
   NORTH CENTRAL IOWA

CITY           SKY/WX    TMP DP  RH WIND       PRES   REMARKS
ALGONA *       CLOUDY    52  45  76 W10       29.98S
CLARION *      CLOUDY    50  46  87 SW7       29.99S
ESTHERVILLE    CLOUDY    49  46  90 W9        29.97R
FORT DODGE *   CLOUDY    50  45  81 CALM      30.01R
MASON CITY     CLOUDY    53  43  68 W10       29.98R
FOREST CITY *  CLOUDY    50  41  71 SW5       29.97S
WEBSTER CITY * CLOUDY    52  45  76 SW9       29.98S
IOWA FALLS *   MOCLDY    50  45  82 SW9       30.01R
$$

IAZ007>011-017>019-026>030-037>042-050>054-066-301200-
   NORTHEAST IOWA

CITY           SKY/WX    TMP DP  RH WIND       PRES   REMARKS
CEDAR RAPIDS   CLEAR     50  48  93 SW8       29.99R
CHARLES CITY * CLOUDY    52  46  82 W10       29.96R
CLINTON *      CLEAR     49  47  93 W8        29.99R
DECORAH *      CLOUDY    52  46  82 VRB5      29.93R
DUBUQUE        CLEAR     50  46  86 W9        29.97R
MONTICELLO *   CLEAR     52  46  82 W6        29.98R
OELWEIN *      CLEAR     48  46  93 W7        29.98R
WATERLOO       CLEAR     50  45  83 W8        29.97R
$$

IAZ064-065-067-068-078-301200-
   EAST CENTRAL IOWA

CITY           SKY/WX    TMP DP  RH WIND       PRES   REMARKS
DAVENPORT      PTCLDY    52  46  80 W7        30.00R
IOWA CITY      CLEAR     51  46  83 CALM      30.01R
MT. PLEASANT * CLEAR     48  45  87 SW3       30.03R
MUSCATINE *    CLEAR     52  46  82 W3        30.01R
QUAD CITIES    CLEAR     53  46  77 SW5       30.00R
$$

IAZ062-063-075>077-085>089-095>099-301200-
   SOUTHEAST IOWA

CITY           SKY/WX    TMP DP  RH WIND       PRES   REMARKS
BURLINGTON     CLEAR     53  46  77 W6        30.02R
FAIRFIELD *    CLEAR     50  45  81 W7        30.02R
FORT MADISON * CLEAR     54  46  76 W5        30.03S
KEOKUK *       CLEAR     50  46  87 W5        30.03R
OSKALOOSA *      N/A     48  44  85 SW5       30.03R
CENTERVILLE *    N/A     46  45  93 CALM      30.05R
OTTUMWA        CLEAR     48  45  89 SW5       30.02R
WASHINGTON *   CLEAR     52  46  82 W7        30.02R
$$

ABBREVIATIONS USED IN REMARKS
   TC - TEMPERATURES IN CELSIUS
  WCI - WIND CHILL INDEX
   HX - HEAT INDEX
  VSB - VISIBILITY
$$




USA.gov is the U.S. government's official web portal to all federal, state and local government web resources and services.